Location: Bonn
(50.7330°N, 7.1000°E)
Time: 12:50:30
(UTC+01:00)

Daily predictions for brighter satellites

Satellite Brightness Start Highest point End
(mag) Time Altitude Azimuth Time Altitude Azimuth Time Altitude Azimuth
CZ-3A R/B 3.4 16:42:09 10° SSW 16:46:26 61° SE 17:07:16 10° ENE
USA 32 4.3 16:58:20 10° SSE 17:03:20 49° E 17:08:22 10° NNE
ISS -3.3 17:03:10 10° W 17:06:29 86° N 17:09:48 10° ENE
Cosmos 1378 Rocket 4.2 17:03:22 10° SSW 17:07:37 57° WNW 17:11:54 10° N
Okean 3 4.0 17:03:24 10° SSW 17:07:38 62° WNW 17:11:51 10° N
YAOGAN 1 3.2 17:07:11 10° SE 17:11:07 35° ENE 17:15:04 10° N
CZ-2C R/B 3.9 17:09:43 10° NNE 17:14:06 53° E 17:18:31 10° S
SL-16 R/B 3.6 17:09:17 10° N 17:15:07 45° WNW 17:20:56 10° SW
Meteor 1-12 Rocket 4.3 17:11:23 10° N 17:17:13 74° ENE 17:23:07 10° SSE
Cosmos 1484 Rocket 4.1 17:15:27 10° ESE 17:17:59 18° ENE 17:20:32 10° NNE
MOS 1 4.4 17:13:19 10° SE 17:18:49 56° ENE 17:24:21 10° N
ASTEX 1 4.2 17:14:31 10° N 17:19:27 57° WNW 17:24:19 10° SSW
Cosmos 1238 Rocket 2.5 17:17:05 10° S 17:20:03 49° E 17:23:28 10° NNE
NOSS 3-4 (A) 3.8 17:14:08 10° NW 17:20:55 62° NE 17:28:09 10° ESE
NOSS 3-4 (C) 3.8 17:14:13 10° NW 17:21:01 62° NE 17:28:14 10° ESE
Cosmos 1455 Rocket 3.1 17:16:50 10° N 17:21:16 86° E 17:25:43 10° S
Cosmos 1844 3.7 17:15:58 10° SSW 17:21:32 88° ESE 17:27:08 10° NNE
SL-8 Rocket 4.2 17:16:47 10° NNW 17:22:57 77° W 17:29:06 10° S
COSMOS 2487 2.5 17:19:34 10° NNW 17:23:11 89° NNE 17:26:47 10° SSE
EO 1 Del DPAF 3.5 17:20:44 10° N 17:24:38 74° WNW 17:28:29 10° SSW
MSX 4.1 17:21:00 10° SE 17:26:25 44° ENE 17:31:50 10° N
Cosmos 2297 4.4 17:22:10 10° S 17:27:11 34° ESE 17:32:10 10° NE
CRYOSAT 2 4.4 17:22:39 10° N 17:27:33 63° E 17:32:23 10° S
Cosmos 1975 2.8 17:23:56 10° N 17:28:01 70° ENE 17:32:02 10° SSE
Thor Agena Rocket 4.2 17:24:09 10° NNE 17:29:00 37° E 17:33:52 10° SSE
BREEZE-M DEB (TANK) 3.5 17:22:15 10° W 17:31:42 88° N 17:35:38 12° E
NOSS 3-3 (A) 4.2 17:25:43 10° SSW 17:31:53 64° SE 17:38:19 11° NE
NOSS 3-3 (C) 4.2 17:25:49 10° SSW 17:32:00 64° SE 17:38:25 11° NE
GEOS 3 Rocket 4.4 17:28:08 10° E 17:32:38 32° NNE 17:37:10 10° NNW
Cosmos 1812 2.7 17:29:02 10° S 17:32:51 71° E 17:36:44 10° NNE
Cosmos 2278 Rocket 2.2 17:28:49 10° SSW 17:34:26 73° ESE 17:40:06 10° NNE
IDEFIX/ARIANE 42P 2.5 17:29:52 10° SSE 17:35:00 66° ENE 17:40:09 10° N
Meteor 2-21 4.5 17:29:00 10° N 17:35:09 62° ENE 17:41:12 10° SSE
SL-8 R/B 4.2 17:32:50 10° WSW 17:37:29 54° SSE 17:41:36 13° E
Cosmos 2366 rocket 4.2 17:31:11 10° NNW 17:37:33 81° W 17:43:51 10° S
ATLAS CENTAUR R/B 3.6 17:39:22 10° NNW 17:41:25 13° N 17:43:24 10° NNE
CZ-2C R/B 2.5 17:37:37 10° SSE 17:42:42 77° ENE 17:47:55 10° NNW
Cosmos 1833 Rocket 2.7 17:38:35 10° NNW 17:44:17 85° ENE 17:49:55 10° SSE
PAYLOAD A 4.2 17:39:47 10° S 17:44:44 74° WSW 17:49:54 10° NNW
CZ-4 R/B 1.5 17:42:52 10° SSE 17:47:01 81° WSW 17:51:08 10° NNW
CZ-4 R/B 4.4 17:45:45 10° SSE 17:49:50 60° ENE 17:53:58 10° N
Meteor 2-14 Rocket 4.5 17:45:24 10° N 17:51:31 61° ENE 17:57:35 10° SSE
Meteor 1-18 Rocket 4.3 17:45:49 10° SSW 17:51:33 87° WNW 17:57:26 10° NNE
Cosmos 2082 Rocket 2.5 17:49:36 10° NNW 17:55:16 72° WSW 18:00:55 10° SSE
SMAP 3.1 17:52:32 10° SSE 17:57:12 83° WSW 18:01:53 10° NNW
Okean 1-7 Rocket 4.0 17:53:57 10° SSE 17:58:09 41° E 18:01:58 12° NNE
SL-24 DEB 4.3 17:53:37 10° NNE 17:58:18 58° E 18:02:55 10° S
Cosmos 1666 3.2 17:56:57 10° N 18:00:35 37° ENE 18:04:12 10° SE
USA 116 4.4 17:55:56 10° NNE 18:01:20 75° ESE 18:06:25 10° S
Cosmos 407 Rocket 3.7 17:57:49 10° NNW 18:02:47 46° ENE 18:07:44 10° SE
MONITOR-E 4.2 18:02:21 10° SSE 18:05:31 60° ENE 18:08:41 10° N
Resurs 01 Rocket 3.7 18:10:12 12° NNE 18:10:12 12° NNE 18:10:46 10° NNE
GRACE-2 4.1 18:05:36 10° SSE 18:08:17 45° E 18:08:37 42° ENE
Cosmos 2263 Rocket 4.3 18:05:05 10° WNW 18:08:38 17° NNW 18:12:12 10° N
GRACE-1 4.0 18:06:01 10° SSE 18:08:42 47° E 18:09:06 42° NE
Cosmos 1606 Rocket 3.9 18:04:47 10° N 18:09:05 43° ENE 18:13:21 10° SE
Cosmos 1821 Rocket 3.9 18:04:27 10° N 18:10:32 63° ENE 18:16:34 10° SSE
CZ-3B DEB 2.6 18:06:58 10° WSW 18:11:15 83° SSE 18:18:30 21° ENE
Cosmos 2056 Rocket 4.2 18:06:55 10° SSE 18:11:37 33° ESE 18:13:32 25° ENE
Cosmos 676 Rocket 4.3 18:10:07 10° NNW 18:15:08 43° ENE 18:20:03 10° SE
Okean 1 4.0 18:12:33 10° SSW 18:16:33 55° WNW 18:20:35 10° N
Meteor 2-16 Rocket 4.4 18:11:35 10° N 18:17:43 83° E 18:23:48 10° SSE
Cosmos 1346 Rocket 2.9 18:13:59 10° SSW 18:17:51 74° WNW 18:21:29 12° N
Cosmos 1954 Rocket 4.4 18:14:05 10° NNW 18:18:56 39° NE 18:21:35 23° ESE
COSMO-SKYMED 1 3.0 18:17:25 28° NE 18:19:05 40° E 18:23:10 10° SSE
Cosmos 1605 Rocket 4.2 18:15:11 10° N 18:21:16 46° ENE 18:27:11 10° SE
NOSS 2-1 (D) 3.6 18:18:03 10° SSW 18:21:51 53° SE 18:23:19 35° ENE
BREEZE-M R/B 4.3 18:11:42 10° WSW 18:22:01 65° SSE 18:24:45 29° E
NOSS 2-1 (C) 3.6 18:18:43 10° SSW 18:22:32 52° SE 18:23:59 35° ENE
Cosmos 921 Rocket 2.9 18:19:45 10° SSW 18:24:04 80° ESE 18:26:43 23° NNE
Cosmos 1624 Rocket 4.3 18:19:19 10° S 18:24:12 43° ESE 18:26:09 30° ENE
Timation 1 Rocket 4.3 18:18:36 10° SSW 18:24:31 72° ESE 18:28:30 22° NE
Cosmos 1743 3.1 18:22:45 10° NNW 18:26:36 65° W 18:30:25 10° S
Cosmos 1025 Rocket 3.1 18:22:39 10° S 18:26:55 52° E 18:28:50 29° NE
ERBS 2.2 18:24:07 10° WNW 18:27:32 77° NNE 18:28:08 56° E
Meteor 1-19 Rocket 4.2 18:22:18 10° S 18:28:06 72° E 18:33:59 10° NNE
BREEZE-M DEB (TANK) 1.8 18:26:41 10° WSW 18:28:47 63° SSE 18:28:49 62° SSE
Tiangong 1 3.1 18:26:38 10° SW 18:28:50 18° S 18:29:32 17° SSE
Cosmos 1844 Rocket 4.2 18:25:27 10° WSW 18:30:20 30° NW 18:35:13 10° NNE
Cosmos 1371 Rocket 4.1 18:25:10 10° S 18:30:25 59° ESE 18:33:09 28° NE
GENESIS II 4.5 18:26:26 10° NW 18:30:25 48° NE 18:30:52 46° ENE
Cosmos 1140 Rocket 3.9 18:26:05 10° NNW 18:30:52 36° NE 18:31:25 35° ENE
ALOS 4.3 18:36:33 14° NNE 18:36:33 14° NNE 18:37:23 10° N
Meteor 2-9 Rocket 4.0 18:28:03 10° N 18:33:33 80° ENE 18:38:52 10° SSE
NOAA 12 4.1 18:29:21 10° SE 18:34:30 57° ENE 18:39:40 10° N
Cosmos 2369 Rocket 3.8 18:33:26 10° SSE 18:35:25 17° SE 18:35:25 17° SE
Meteor 1-15 Rocket 4.2 18:35:00 10° N 18:40:56 76° ENE 18:46:44 10° SSE
NOSS 2-1 (E) 3.4 18:37:16 10° SSW 18:41:14 70° SE 18:42:12 51° ENE
ISS -3.3 18:39:46 10° W 18:42:53 75° NW 18:42:53 75° NW
Nadezhda 3 Rocket 4.2 18:38:14 10° SSW 18:44:28 73° WNW 18:50:49 10° N
RESURS DK-1 3.9 18:42:13 10° NNW 18:44:19 23° N 18:44:19 23° N
Cosmos 2058 Rocket 3.0 18:42:14 10° N 18:46:43 64° ENE 18:51:07 10° SSE
Meteor 2-4 Rocket 3.4 18:43:39 10° S 18:48:59 76° E 18:52:33 22° NNE
SKYMED 3 4.4 18:47:48 42° NNE 18:49:14 78° ESE 18:53:34 10° S
Meteor 1-23 Rocket 4.1 18:44:02 10° S 18:49:39 68° E 18:53:10 23° NNE
Cosmos 1484 Rocket 3.6 18:48:33 10° S 18:52:10 48° W 18:55:47 10° NNW
USA 234 3.3 18:49:44 37° ENE 18:52:26 67° SE 18:58:56 10° SW
Cosmos 1190 Rocket 4.4 18:50:15 10° NNW 18:55:27 63° WSW 19:00:35 10° S
FENGYUN 3A 4.4 18:59:44 35° NNE 18:59:44 35° NNE 19:03:15 10° N
METEOR-M 4.0 18:58:46 10° SSE 19:04:06 83° ENE 19:09:30 10° NNW
Cosmos 1727 Rocket 4.0 19:00:00 10° SSE 19:06:00 55° E 19:06:51 51° ENE
SKYMED 2 3.7 19:06:01 45° N 19:07:15 72° WNW 19:11:34 10° SSW
FALCON 9 R/B 4.5 18:50:10 10° WSW 19:10:00 34° SSW 19:15:11 18° SE
GEOS 3 Rocket 3.5 19:08:45 45° SE 19:10:22 83° SW 19:15:32 10° NW
Cosmos 2297 4.4 19:05:44 10° SW 19:11:12 49° NW 19:14:07 26° N
Okean 2 3.9 19:08:27 10° S 19:11:37 51° SSW 19:11:37 51° SSW
BREEZE M DEB (TANK) 3.5 19:10:18 10° SW 19:14:24 34° SSW 19:14:24 34° SSW
Meteor 2-8 Rocket 4.4 19:11:12 10° S 19:17:19 84° W 19:22:39 14° N
Cosmos 2278 Rocket 3.9 19:14:16 10° W 19:19:05 28° NW 19:22:19 17° N
SL-8 R/B 3.9 19:15:05 10° W 19:19:35 66° SSW 19:19:35 66° SSW
ATLAS CENTAUR R/B 3.8 19:18:55 10° NNW 19:19:47 13° NNW 19:19:47 13° NNW
BREEZE-M DEB (TANK) 4.4 19:19:45 10° W 19:23:59 42° WSW 19:23:59 42° WSW
Cosmos 1892 Rocket 4.3 19:22:19 10° SSW 19:25:33 48° SW 19:25:33 48° SW
Cosmos 2297 Rocket 4.4 19:36:05 10° N 19:37:00 12° N 19:37:00 12° N
Resurs 01 Rocket 4.2 19:47:47 13° NNW 19:47:47 13° NNW 19:48:13 10° NNW
Cosmos 2227 Rocket 4.4 19:41:12 10° N 19:42:15 13° N 19:42:15 13° N
Spot 2 Rocket 4.5 19:47:44 41° NNW 19:47:44 41° NNW 19:51:06 10° NNW
Cosmos 2056 Rocket 4.4 19:48:32 10° SW 19:53:38 45° WNW 19:53:55 45° NW
COSMO-SKYMED 1 4.5 19:54:38 26° NW 19:55:06 27° WNW 19:58:45 10° WSW
BREEZE-M DEB (TANK) 4.0 20:05:12 10° WNW 20:16:51 65° WNW 20:16:51 65° WNW
Cosmos 2369 Rocket 4.0 20:15:16 10° SW 20:17:16 23° SW 20:17:16 23° SW
USA 234 3.9 20:37:05 49° WNW 20:37:05 49° WNW 20:41:55 10° W
CZ-3B DEB 3.8 20:39:04 10° WNW 20:46:08 72° N 20:46:08 72° N
